Location: Boiro
(42.6475°N, 8.8834°W)
Time: 03:41:53
(UTC+01:00)

Vanguard 3 - Pass Details

Date: 30 November 2021
Orbit: 508 x 3260 km, 33.3° (Epoch: 19 January)

Event Time Altitude Azimuth Distance (km) Brightness Sun altitude
Rises 07:59:52 0° 253° (WSW) 7,200 11.5 -8.3°
Reaches altitude 10° 08:05:03 10° 250° (WSW) 6,060 11.2 -7.4°
Maximum altitude 08:22:36 58° 178° (S) 2,704 10.0 -4.5°
Drops below altitude 10° 08:33:29 10° 104° (ESE) 3,927 12.4 -2.7°
Sets 08:36:05 0° 100° (E) 4,610 12.7 -2.3°
